Salem, IL

2:42 PM CDT on July 25, 2017 (GMT -0500)
Salem-Leckrone

Weather History for KSLO - November, 2012

Change the Weather History Date:

Saturday, November 24, 2012

  Actual Average Record
Temperature  
Mean Temperature 30 °F -  
Max Temperature 35 °F 50 °F 73 °F (1966)
Min Temperature 26 °F 30 °F 12 °F (1970)
Degree Days  
Heating Degree Days 34    
Moisture  
Dew Point 19 °F    
Average Humidity 62    
Maximum Humidity 71    
Minimum Humidity 55    
Precipitation  
Precipitation 0.00 in - - ()
Sea Level Pressure  
Sea Level Pressure 30.24 in    
Wind  
Wind Speed 6 mph (West)    
Max Wind Speed 10 mph    
Max Gust Speed -    
Visibility 10 miles    
Events      
Averages and records for this station are not official NWS values.
T = Trace of Precipitation, MM = Missing Value Source: NWS Daily Summary

Daily Weather History Graph

Daily Weather History Graph

Search for Another Location

Airport or City:

Trip Planner

Search our weather history database for the weather conditions in past years. The results will help you decide how hot, cold, wet, or windy it might be!

Date:

Astronomy

Nov. 24, 2012 Rise Set
Actual Time 6:48 AM CST 4:36 PM CST
Civil Twilight 6:19 AM CST 5:05 PM CST
Nautical Twilight 5:46 AM CST 5:38 PM CST
Astronomical Twilight 5:14 AM CST 6:10 PM CST
Moon 2:19 PM CST (11/24) 3:06 AM CST (11/24)
Length of Visible Light 10h 46m
Length of Day
9h 48m
Waxing Gibbous, 87% of the Moon is Illuminated
Nov 24
Waxing Gibbous
Nov 28
Full
Dec 6
Last Quarter
Dec 13
New
Dec 19
First Quarter

Hourly Weather History & Observations

Time (CST) Temp. Windchill Dew Point Humidity Pressure Visibility Wind Dir Wind Speed Gust Speed Precip Events Conditions
12:15 AM 30.6 °F 23.1 °F 18.1 °F 60% 30.32 in 10.0 mi NW 8.1 mph - N/A   Clear
12:35 AM 30.2 °F 24.3 °F 17.6 °F 60% 30.31 in 10.0 mi WNW 5.8 mph - N/A   Clear
12:55 AM 30.0 °F 24.1 °F 18.3 °F 62% 30.31 in 10.0 mi West 5.8 mph - N/A   Clear
1:15 AM 30.0 °F 24.1 °F 18.5 °F 62% 30.31 in 10.0 mi WNW 5.8 mph - N/A   Clear
1:35 AM 29.7 °F 24.7 °F 18.0 °F 62% 30.31 in 10.0 mi WNW 4.6 mph - N/A   Clear
1:55 AM 29.3 °F 23.2 °F 18.1 °F 63% 30.31 in 10.0 mi WNW 5.8 mph - N/A   Clear
2:15 AM 29.3 °F 23.2 °F 17.8 °F 62% 30.31 in 10.0 mi WNW 5.8 mph - N/A   Clear
2:35 AM 28.9 °F 23.9 °F 18.1 °F 64% 30.30 in 10.0 mi NW 4.6 mph - N/A   Clear
2:55 AM 28.9 °F 23.9 °F 18.0 °F 64% 30.30 in 10.0 mi WNW 4.6 mph - N/A   Clear
3:15 AM 28.4 °F 20.4 °F 17.8 °F 64% 30.31 in 10.0 mi WNW 8.1 mph - N/A   Clear
3:35 AM 28.2 °F 21.0 °F 17.8 °F 65% 30.31 in 10.0 mi WNW 6.9 mph - N/A   Clear
3:55 AM 28.4 °F 20.4 °F 17.6 °F 64% 30.30 in 10.0 mi NW 8.1 mph - N/A   Clear
4:15 AM 28.2 °F 21.0 °F 17.6 °F 64% 30.30 in 10.0 mi NW 6.9 mph - N/A   Clear
4:35 AM 27.5 °F 21.1 °F 17.6 °F 66% 30.31 in 10.0 mi WNW 5.8 mph - N/A   Clear
4:55 AM 27.0 °F 19.5 °F 17.8 °F 68% 30.31 in 10.0 mi WNW 6.9 mph - N/A   Clear
5:15 AM 27.1 °F 20.7 °F 18.0 °F 68% 30.30 in 10.0 mi NW 5.8 mph - N/A   Clear
5:35 AM 26.6 °F 19.1 °F 17.8 °F 69% 30.30 in 10.0 mi WNW 6.9 mph - N/A   Clear
5:55 AM 26.6 °F 20.0 °F 17.6 °F 69% 30.30 in 10.0 mi NW 5.8 mph - N/A   Clear
6:15 AM 26.2 °F 20.7 °F 17.6 °F 70% 30.31 in 10.0 mi WNW 4.6 mph - N/A   Clear
6:35 AM 26.4 °F 19.8 °F 17.6 °F 69% 30.31 in 10.0 mi WNW 5.8 mph - N/A   Clear
6:55 AM 26.2 °F 18.6 °F 17.6 °F 70% 30.31 in 10.0 mi WNW 6.9 mph - N/A   Clear
7:15 AM 26.1 °F 20.5 °F 17.6 °F 70% 30.31 in 10.0 mi WNW 4.6 mph - N/A   Clear
7:35 AM 26.6 °F 19.1 °F 17.6 °F 69% 30.32 in 10.0 mi WNW 6.9 mph - N/A   Clear
7:55 AM 27.1 °F 18.2 °F 17.6 °F 67% 30.33 in 10.0 mi WNW 9.2 mph - N/A   Clear
8:15 AM 27.5 °F 18.0 °F 17.1 °F 65% 30.33 in 10.0 mi NW 10.4 mph - N/A   Clear
8:35 AM 28.2 °F 19.5 °F 17.4 °F 64% 30.33 in 10.0 mi NW 9.2 mph - N/A   Clear
8:55 AM 28.4 °F 19.7 °F 17.4 °F 63% 30.33 in 10.0 mi NNW 9.2 mph - N/A   Clear
9:15 AM 28.8 °F 22.6 °F 17.1 °F 62% 30.34 in 10.0 mi NW 5.8 mph - N/A   Clear
9:35 AM 29.5 °F 21.8 °F 17.6 °F 61% 30.34 in 10.0 mi NW 8.1 mph - N/A   Clear
9:55 AM 29.7 °F 22.0 °F 17.2 °F 60% 30.34 in 10.0 mi NW 8.1 mph - N/A   Clear
10:15 AM 30.2 °F 23.4 °F 17.4 °F 59% 30.34 in 10.0 mi WNW 6.9 mph - N/A   Clear
10:35 AM 31.3 °F 25.6 °F 17.6 °F 57% 30.34 in 10.0 mi NW 5.8 mph - N/A   Clear
10:55 AM 31.6 °F 27.0 °F 18.7 °F 59% 30.33 in 10.0 mi WNW 4.6 mph - N/A   Clear
11:15 AM 31.8 °F 26.2 °F 17.6 °F 56% 30.32 in 10.0 mi WNW 5.8 mph - N/A   Clear
11:35 AM 32.2 °F 26.7 °F 18.5 °F 57% 30.31 in 10.0 mi WSW 5.8 mph - N/A   Clear
11:55 AM 32.7 °F 28.3 °F 19.9 °F 59% 30.30 in 10.0 mi West 4.6 mph - N/A   Clear
12:15 PM 33.1 °F 26.9 °F 20.5 °F 60% 30.29 in 10.0 mi WSW 6.9 mph - N/A   Clear
12:35 PM 32.9 °F 27.5 °F 19.0 °F 57% 30.28 in 10.0 mi WSW 5.8 mph - N/A   Clear
12:55 PM 33.6 °F 28.4 °F 19.8 °F 57% 30.27 in 10.0 mi SW 5.8 mph - N/A   Clear
1:15 PM 33.6 °F 26.8 °F 19.6 °F 56% 30.26 in 10.0 mi West 8.1 mph - N/A   Clear
1:35 PM 33.8 °F 29.6 °F 19.0 °F 55% 30.26 in 10.0 mi WSW 4.6 mph - N/A   Clear
1:55 PM 34.5 °F 28.6 °F 19.9 °F 55% 30.24 in 10.0 mi WSW 6.9 mph - N/A   Clear
2:15 PM 34.3 °F 30.2 °F 19.8 °F 55% 30.23 in 10.0 mi WSW 4.6 mph - N/A   Clear
2:35 PM 34.2 °F 31.2 °F 19.4 °F 55% 30.23 in 10.0 mi West 3.5 mph - N/A   Clear
2:55 PM 34.9 °F 30.8 °F 20.5 °F 56% 30.22 in 10.0 mi SW 4.6 mph - N/A   Clear
3:15 PM 35.1 °F 31.0 °F 20.5 °F 55% 30.22 in 10.0 mi WSW 4.6 mph - N/A   Clear
3:35 PM 35.1 °F 31.0 °F 20.7 °F 56% 30.22 in 10.0 mi WSW 4.6 mph - N/A   Clear
3:55 PM 34.9 °F 32.0 °F 20.5 °F 56% 30.21 in 10.0 mi WSW 3.5 mph - N/A   Clear
4:15 PM 34.7 °F 31.8 °F 20.3 °F 56% 30.21 in 10.0 mi WSW 3.5 mph - N/A   Clear
4:35 PM 34.2 °F 31.2 °F 21.2 °F 59% 30.20 in 10.0 mi West 3.5 mph - N/A   Clear
4:55 PM 33.6 °F - 22.5 °F 64% 30.19 in 10.0 mi Calm Calm - N/A   Clear
5:15 PM 32.9 °F - 23.7 °F 69% 30.19 in 10.0 mi Calm Calm - N/A   Clear
5:35 PM 32.2 °F - 22.3 °F 67% 30.18 in 10.0 mi Calm Calm - N/A   Clear
5:55 PM 32.0 °F - 23.4 °F 70% 30.18 in 10.0 mi Calm Calm - N/A   Clear
6:15 PM 31.6 °F - 23.2 °F 71% 30.18 in 10.0 mi Calm Calm - N/A   Clear
6:35 PM 32.0 °F - 21.7 °F 66% 30.17 in 10.0 mi Calm Calm - N/A   Clear
6:55 PM 32.0 °F - 21.2 °F 64% 30.17 in 10.0 mi Calm Calm - N/A   Clear
7:15 PM 32.0 °F 28.7 °F 21.2 °F 64% 30.15 in 10.0 mi SSE 3.5 mph - N/A   Clear
7:35 PM 32.0 °F 28.7 °F 21.0 °F 64% 30.15 in 10.0 mi SSE 3.5 mph - N/A   Clear
7:55 PM 32.0 °F 28.7 °F 20.7 °F 63% 30.14 in 10.0 mi SSE 3.5 mph - N/A   Clear
8:15 PM 32.0 °F 27.5 °F 20.7 °F 63% 30.13 in 10.0 mi SSE 4.6 mph - N/A   Clear
8:35 PM 32.0 °F 28.7 °F 21.2 °F 64% 30.13 in 10.0 mi SSE 3.5 mph - N/A   Clear
8:55 PM 31.8 °F 27.3 °F 20.3 °F 62% 30.12 in 10.0 mi SSE 4.6 mph - N/A   Clear
9:15 PM 32.0 °F 26.4 °F 20.3 °F 62% 30.11 in 10.0 mi SSE 5.8 mph - N/A   Clear
9:35 PM 31.8 °F 27.3 °F 20.3 °F 62% 30.10 in 10.0 mi SSE 4.6 mph - N/A   Clear
9:55 PM 32.0 °F 24.8 °F 20.3 °F 62% 30.10 in 10.0 mi South 8.1 mph - N/A   Clear
10:15 PM 32.0 °F 25.6 °F 20.5 °F 63% 30.09 in 10.0 mi South 6.9 mph - N/A   Clear
10:35 PM 32.0 °F 26.4 °F 20.5 °F 63% 30.09 in 10.0 mi SSE 5.8 mph - N/A   Clear
10:55 PM 32.4 °F 25.3 °F 20.5 °F 62% 30.08 in 10.0 mi SSE 8.1 mph - N/A   Clear
11:15 PM 32.2 °F 25.8 °F 20.7 °F 63% 30.08 in 10.0 mi SSE 6.9 mph - N/A   Clear
11:35 PM 32.2 °F 26.7 °F 20.8 °F 63% 30.08 in 10.0 mi South 5.8 mph - N/A   Clear
11:55 PM 32.4 °F 26.9 °F 21.2 °F 63% 30.07 in 10.0 mi South 5.8 mph - N/A   Clear